Year,Month,Day,Hour,Minute,Value (Times are PST for temperature in C)
2010,01,23,00,00,4.70
2010,01,23,00,01,4.70
2010,01,23,00,02,4.70
2010,01,23,00,03,4.70
2010,01,23,00,04,4.70
2010,01,23,00,05,4.60
2010,01,23,00,06,4.60
2010,01,23,00,07,4.60
2010,01,23,00,08,4.60
2010,01,23,00,09,4.60
2010,01,23,00,10,4.60
2010,01,23,00,11,4.60
2010,01,23,00,12,4.60
2010,01,23,00,13,4.50
2010,01,23,00,14,4.50
2010,01,23,00,15,4.40
2010,01,23,00,16,4.40
2010,01,23,00,17,4.30
2010,01,23,00,18,4.20
2010,01,23,00,19,4.20
2010,01,23,00,20,4.20
2010,01,23,00,21,4.10
2010,01,23,00,22,4.10
2010,01,23,00,23,4.00
2010,01,23,00,24,4.00
2010,01,23,00,25,4.00
2010,01,23,00,26,4.00
2010,01,23,00,27,4.00
2010,01,23,00,28,4.00
2010,01,23,00,29,4.00
2010,01,23,00,30,4.00
2010,01,23,00,31,4.00
2010,01,23,00,32,4.00
2010,01,23,00,33,4.00
2010,01,23,00,34,4.00
2010,01,23,00,35,4.00
2010,01,23,00,36,3.90
2010,01,23,00,37,3.90
2010,01,23,00,38,3.90
2010,01,23,00,39,3.90
2010,01,23,00,40,3.90
2010,01,23,00,41,3.90
2010,01,23,00,42,3.90
2010,01,23,00,43,3.90
2010,01,23,00,44,3.90
2010,01,23,00,45,3.90
2010,01,23,00,46,3.90
2010,01,23,00,47,4.00
2010,01,23,00,48,4.00
2010,01,23,00,49,4.00
2010,01,23,00,50,4.00
2010,01,23,00,51,4.00
2010,01,23,00,52,4.00
2010,01,23,00,53,4.00
2010,01,23,00,54,4.00
2010,01,23,00,55,4.00
2010,01,23,00,56,4.00
2010,01,23,00,57,4.10
2010,01,23,00,58,4.10
2010,01,23,00,59,4.20
2010,01,23,01,00,4.20
2010,01,23,01,01,4.20
2010,01,23,01,02,4.20
2010,01,23,01,03,4.20
2010,01,23,01,04,4.30
2010,01,23,01,05,4.30
2010,01,23,01,06,4.30
2010,01,23,01,07,4.30
2010,01,23,01,08,4.30
2010,01,23,01,09,4.40
2010,01,23,01,10,4.40
2010,01,23,01,11,4.50
2010,01,23,01,12,4.60
2010,01,23,01,13,4.60
2010,01,23,01,14,4.60
2010,01,23,01,15,4.70
2010,01,23,01,16,4.70
2010,01,23,01,17,4.70
2010,01,23,01,18,4.80
2010,01,23,01,19,4.80
2010,01,23,01,20,4.90
2010,01,23,01,21,4.90
2010,01,23,01,22,4.90
2010,01,23,01,23,5.00
2010,01,23,01,24,5.10
2010,01,23,01,25,5.10
2010,01,23,01,26,5.20
2010,01,23,01,27,5.30
2010,01,23,01,28,5.30
2010,01,23,01,29,5.30
2010,01,23,01,30,5.40
2010,01,23,01,31,5.40
2010,01,23,01,32,5.40
2010,01,23,01,33,5.50
2010,01,23,01,34,5.50
2010,01,23,01,35,5.50
2010,01,23,01,36,5.50
2010,01,23,01,37,5.50
2010,01,23,01,38,5.50
2010,01,23,01,39,5.50
2010,01,23,01,40,5.50
2010,01,23,01,41,5.50
2010,01,23,01,42,5.50
2010,01,23,01,43,5.40
2010,01,23,01,44,5.40
2010,01,23,01,45,5.40
2010,01,23,01,46,5.40
2010,01,23,01,47,5.30
2010,01,23,01,48,5.30
2010,01,23,01,49,5.30
2010,01,23,01,50,5.30
2010,01,23,01,51,5.30
2010,01,23,01,52,5.30
2010,01,23,01,53,5.30
2010,01,23,01,54,5.30
2010,01,23,01,55,5.40
2010,01,23,01,56,5.40
2010,01,23,01,57,5.50
2010,01,23,01,58,5.50
2010,01,23,01,59,5.50
2010,01,23,02,00,5.50
2010,01,23,02,01,5.60
2010,01,23,02,02,5.60
2010,01,23,02,03,5.60
2010,01,23,02,04,5.70
2010,01,23,02,05,5.70
2010,01,23,02,06,5.70
2010,01,23,02,07,5.70
2010,01,23,02,08,5.70
2010,01,23,02,09,5.70
2010,01,23,02,10,5.70
2010,01,23,02,11,5.70
2010,01,23,02,12,5.70
2010,01,23,02,13,5.60
2010,01,23,02,14,5.50
2010,01,23,02,15,5.50
2010,01,23,02,16,5.40
2010,01,23,02,17,5.40
2010,01,23,02,18,5.40
2010,01,23,02,19,5.30
2010,01,23,02,20,5.30
2010,01,23,02,21,5.30
2010,01,23,02,22,5.30
2010,01,23,02,23,5.30
2010,01,23,02,24,5.40
2010,01,23,02,25,5.40
2010,01,23,02,26,5.40
2010,01,23,02,27,5.30
2010,01,23,02,28,5.30
2010,01,23,02,29,5.30
2010,01,23,02,30,5.40
2010,01,23,02,31,5.40
2010,01,23,02,32,5.40
2010,01,23,02,33,5.40
2010,01,23,02,34,5.40
2010,01,23,02,35,5.40
2010,01,23,02,36,5.40
2010,01,23,02,37,5.40
2010,01,23,02,38,5.40
2010,01,23,02,39,5.40
2010,01,23,02,40,5.40
2010,01,23,02,41,5.40
2010,01,23,02,42,5.30
2010,01,23,02,43,5.30
2010,01,23,02,44,5.40
2010,01,23,02,45,5.40
2010,01,23,02,46,5.40
2010,01,23,02,47,5.40
2010,01,23,02,48,5.40
2010,01,23,02,49,5.40
2010,01,23,02,50,5.40
2010,01,23,02,51,5.40
2010,01,23,02,52,5.40
2010,01,23,02,53,5.40
2010,01,23,02,54,5.40
2010,01,23,02,55,5.30
2010,01,23,02,56,5.40
2010,01,23,02,57,5.40
2010,01,23,02,58,5.40
2010,01,23,02,59,5.40
2010,01,23,03,00,5.40
2010,01,23,03,01,5.50
2010,01,23,03,02,5.50
2010,01,23,03,03,5.50
2010,01,23,03,04,5.40
2010,01,23,03,05,5.40
2010,01,23,03,06,5.40
2010,01,23,03,07,5.40
2010,01,23,03,08,5.40
2010,01,23,03,09,5.40
2010,01,23,03,10,5.30
2010,01,23,03,11,5.30
2010,01,23,03,12,5.30
2010,01,23,03,13,5.30
2010,01,23,03,14,5.30
2010,01,23,03,15,5.30
2010,01,23,03,16,5.30
2010,01,23,03,17,5.30
2010,01,23,03,18,5.30
2010,01,23,03,19,5.40
2010,01,23,03,20,5.40
2010,01,23,03,21,5.40
2010,01,23,03,22,5.40
2010,01,23,03,23,5.40
2010,01,23,03,24,5.40
2010,01,23,03,25,5.40
2010,01,23,03,26,5.30
2010,01,23,03,27,5.30
2010,01,23,03,28,5.30
2010,01,23,03,29,5.30
2010,01,23,03,30,5.30
2010,01,23,03,31,5.20
2010,01,23,03,32,5.20
2010,01,23,03,33,5.10
2010,01,23,03,34,5.10
2010,01,23,03,35,5.10
2010,01,23,03,36,5.10
2010,01,23,03,37,5.00
2010,01,23,03,38,4.90
2010,01,23,03,39,4.80
2010,01,23,03,40,4.70
2010,01,23,03,41,4.60
2010,01,23,03,42,4.60
2010,01,23,03,43,4.50
2010,01,23,03,44,4.50
2010,01,23,03,45,4.40
2010,01,23,03,46,4.40
2010,01,23,03,47,4.30
2010,01,23,03,48,4.30
2010,01,23,03,49,4.20
2010,01,23,03,50,4.20
2010,01,23,03,51,4.20
2010,01,23,03,52,4.10
2010,01,23,03,53,4.10
2010,01,23,03,54,4.00
2010,01,23,03,55,4.00
2010,01,23,03,56,4.00
2010,01,23,03,57,4.00
2010,01,23,03,58,4.00
2010,01,23,03,59,3.90
2010,01,23,04,00,4.00
2010,01,23,04,01,4.00
2010,01,23,04,02,4.00
2010,01,23,04,03,4.00
2010,01,23,04,04,4.00
2010,01,23,04,05,4.00
2010,01,23,04,06,4.00
2010,01,23,04,07,4.00
2010,01,23,04,08,4.10
2010,01,23,04,09,4.10
2010,01,23,04,10,4.10
2010,01,23,04,11,4.20
2010,01,23,04,12,4.20
2010,01,23,04,13,4.20
2010,01,23,04,14,4.20
2010,01,23,04,15,4.30
2010,01,23,04,16,4.30
2010,01,23,04,17,4.30
2010,01,23,04,18,4.30
2010,01,23,04,19,4.40
2010,01,23,04,20,4.40
2010,01,23,04,21,4.40
2010,01,23,04,22,4.40
2010,01,23,04,23,4.40
2010,01,23,04,24,4.40
2010,01,23,04,25,4.50
2010,01,23,04,26,4.50
2010,01,23,04,27,4.50
2010,01,23,04,28,4.50
2010,01,23,04,29,4.60
2010,01,23,04,30,4.60
2010,01,23,04,31,4.60
2010,01,23,04,32,4.60
2010,01,23,04,33,4.70
2010,01,23,04,34,4.70
2010,01,23,04,35,4.70
2010,01,23,04,36,4.80
2010,01,23,04,37,4.80
2010,01,23,04,38,4.80
2010,01,23,04,39,4.90
2010,01,23,04,40,4.90
2010,01,23,04,41,4.90
2010,01,23,04,42,4.90
2010,01,23,04,43,4.90
2010,01,23,04,44,4.90
2010,01,23,04,45,4.90
2010,01,23,04,46,4.90
2010,01,23,04,47,4.90
2010,01,23,04,48,4.90
2010,01,23,04,49,4.90
2010,01,23,04,50,4.90
2010,01,23,04,51,4.90
2010,01,23,04,52,4.90
2010,01,23,04,53,4.90
2010,01,23,04,54,4.90
2010,01,23,04,55,4.90
2010,01,23,04,56,4.90
2010,01,23,04,57,5.00
2010,01,23,04,58,5.10
2010,01,23,04,59,5.10
2010,01,23,05,00,5.10
2010,01,23,05,01,5.20
2010,01,23,05,02,5.30
2010,01,23,05,03,5.30
2010,01,23,05,04,5.30
2010,01,23,05,05,5.30
2010,01,23,05,06,5.30
2010,01,23,05,07,5.30
2010,01,23,05,08,5.30
2010,01,23,05,09,5.30
2010,01,23,05,10,5.40
2010,01,23,05,11,5.40
2010,01,23,05,12,5.40
2010,01,23,05,13,5.40
2010,01,23,05,14,5.40
2010,01,23,05,15,5.40
2010,01,23,05,16,5.40
2010,01,23,05,17,5.40
2010,01,23,05,18,5.50
2010,01,23,05,19,5.50
2010,01,23,05,20,5.50
2010,01,23,05,21,5.50
2010,01,23,05,22,5.50
2010,01,23,05,23,5.40
2010,01,23,05,24,5.40
2010,01,23,05,25,5.40
2010,01,23,05,26,5.50
2010,01,23,05,27,5.50
2010,01,23,05,28,5.50
2010,01,23,05,29,5.50
2010,01,23,05,30,5.50
2010,01,23,05,31,5.50
2010,01,23,05,32,5.50
2010,01,23,05,33,5.60
2010,01,23,05,34,5.70
2010,01,23,05,35,5.70
2010,01,23,05,36,5.90
2010,01,23,05,37,6.00
2010,01,23,05,38,6.20
2010,01,23,05,39,6.30
2010,01,23,05,40,6.50
2010,01,23,05,41,6.60
2010,01,23,05,42,6.80
2010,01,23,05,43,6.90
2010,01,23,05,44,7.00
2010,01,23,05,45,7.10
2010,01,23,05,46,7.20
2010,01,23,05,47,7.30
2010,01,23,05,48,7.30
2010,01,23,05,49,7.40
2010,01,23,05,50,7.60
2010,01,23,05,51,7.70
2010,01,23,05,52,7.80
2010,01,23,05,53,7.80
2010,01,23,05,54,7.80
2010,01,23,05,55,7.80
2010,01,23,05,56,7.80
2010,01,23,05,57,7.80
2010,01,23,05,58,7.80
2010,01,23,05,59,7.80
2010,01,23,06,00,7.70
2010,01,23,06,01,7.60
2010,01,23,06,02,7.50
2010,01,23,06,03,7.40
2010,01,23,06,04,7.30
2010,01,23,06,05,7.30
2010,01,23,06,06,7.20
2010,01,23,06,07,7.20
2010,01,23,06,08,7.10
2010,01,23,06,09,7.00
2010,01,23,06,10,7.00
2010,01,23,06,11,6.90
2010,01,23,06,12,6.90
2010,01,23,06,13,6.80
2010,01,23,06,14,6.80
2010,01,23,06,15,6.80
2010,01,23,06,16,6.70
2010,01,23,06,17,6.70
2010,01,23,06,18,6.60
2010,01,23,06,19,6.60
2010,01,23,06,20,6.50
2010,01,23,06,21,6.40
2010,01,23,06,22,6.40
2010,01,23,06,23,6.40
2010,01,23,06,24,6.30
2010,01,23,06,25,6.30
2010,01,23,06,26,6.30
2010,01,23,06,27,6.20
2010,01,23,06,28,6.20
2010,01,23,06,29,6.20
2010,01,23,06,30,6.20
2010,01,23,06,31,6.20
2010,01,23,06,32,6.20
2010,01,23,06,33,6.20
2010,01,23,06,34,6.20
2010,01,23,06,35,6.10
2010,01,23,06,36,6.10
2010,01,23,06,37,6.10
2010,01,23,06,38,6.10
2010,01,23,06,39,6.00
2010,01,23,06,40,6.00
2010,01,23,06,41,6.00
2010,01,23,06,42,6.00
2010,01,23,06,43,6.00
2010,01,23,06,44,6.00
2010,01,23,06,45,6.10
2010,01,23,06,46,6.10
2010,01,23,06,47,6.00
2010,01,23,06,48,6.00
2010,01,23,06,49,6.00
2010,01,23,06,50,6.00
2010,01,23,06,51,6.00
2010,01,23,06,52,6.00
2010,01,23,06,53,5.90
2010,01,23,06,54,5.90
2010,01,23,06,55,5.90
2010,01,23,06,56,5.90
2010,01,23,06,57,5.90
2010,01,23,06,58,5.90
2010,01,23,06,59,6.00
2010,01,23,07,00,6.00
2010,01,23,07,01,6.00
2010,01,23,07,02,6.00
2010,01,23,07,03,6.00
2010,01,23,07,04,6.00
2010,01,23,07,05,6.00
2010,01,23,07,06,6.00
2010,01,23,07,07,6.00
2010,01,23,07,08,6.00
2010,01,23,07,09,6.00
2010,01,23,07,10,6.00
2010,01,23,07,11,6.00
2010,01,23,07,12,6.00
2010,01,23,07,13,6.00
2010,01,23,07,14,6.00
2010,01,23,07,15,5.90
2010,01,23,07,16,5.90
2010,01,23,07,17,5.90
2010,01,23,07,18,5.90
2010,01,23,07,19,5.90
2010,01,23,07,20,5.90
2010,01,23,07,21,5.90
2010,01,23,07,22,5.90
2010,01,23,07,23,5.90
2010,01,23,07,24,5.80
2010,01,23,07,25,5.80
2010,01,23,07,26,5.80
2010,01,23,07,27,5.70
2010,01,23,07,28,5.70
2010,01,23,07,29,5.70
2010,01,23,07,30,5.70
2010,01,23,07,31,5.70
2010,01,23,07,32,5.70
2010,01,23,07,33,5.70
2010,01,23,07,34,5.70
2010,01,23,07,35,5.70
2010,01,23,07,36,5.70
2010,01,23,07,37,5.70
2010,01,23,07,38,5.70
2010,01,23,07,39,5.70
2010,01,23,07,40,5.70
2010,01,23,07,41,5.60
2010,01,23,07,42,5.60
2010,01,23,07,43,5.60
2010,01,23,07,44,5.60
2010,01,23,07,45,5.70
2010,01,23,07,46,5.70
2010,01,23,07,47,5.70
2010,01,23,07,48,5.70
2010,01,23,07,49,5.70
2010,01,23,07,50,5.70
2010,01,23,07,51,5.70
2010,01,23,07,52,5.70
2010,01,23,07,53,5.70
2010,01,23,07,54,5.70
2010,01,23,07,55,5.70
2010,01,23,07,56,5.70
2010,01,23,07,57,5.70
2010,01,23,07,58,5.70
2010,01,23,07,59,5.70
2010,01,23,08,00,5.70
2010,01,23,08,01,5.70
2010,01,23,08,02,5.70
2010,01,23,08,03,5.70
2010,01,23,08,04,5.70
2010,01,23,08,05,5.70
2010,01,23,08,06,5.70
2010,01,23,08,07,5.70
2010,01,23,08,08,5.80
2010,01,23,08,09,5.80
2010,01,23,08,10,5.80
2010,01,23,08,11,5.80
2010,01,23,08,12,5.80
2010,01,23,08,13,5.90
2010,01,23,08,14,5.90
2010,01,23,08,15,5.90
2010,01,23,08,16,6.00
2010,01,23,08,17,6.00
2010,01,23,08,18,6.00
2010,01,23,08,19,6.00
2010,01,23,08,20,6.00
2010,01,23,08,21,6.00
2010,01,23,08,22,6.00
2010,01,23,08,23,6.00
2010,01,23,08,24,6.10
2010,01,23,08,25,6.10
2010,01,23,08,26,6.10
2010,01,23,08,27,6.10
2010,01,23,08,28,6.10
2010,01,23,08,29,6.10
2010,01,23,08,30,6.10
2010,01,23,08,31,6.10
2010,01,23,08,32,6.10
2010,01,23,08,33,6.10
2010,01,23,08,34,6.10
2010,01,23,08,35,6.10
2010,01,23,08,36,6.10
2010,01,23,08,37,6.10
2010,01,23,08,38,6.10
2010,01,23,08,39,6.10
2010,01,23,08,40,6.10
2010,01,23,08,41,6.10
2010,01,23,08,42,6.10
2010,01,23,08,43,6.20
2010,01,23,08,44,6.20
2010,01,23,08,45,6.10
2010,01,23,08,46,6.10
2010,01,23,08,47,6.10
2010,01,23,08,48,6.10
2010,01,23,08,49,6.10
2010,01,23,08,50,6.10
2010,01,23,08,51,6.10
2010,01,23,08,52,6.00
2010,01,23,08,53,6.00
2010,01,23,08,54,6.00
2010,01,23,08,55,6.00
2010,01,23,08,56,6.10
2010,01,23,08,57,6.10
2010,01,23,08,58,6.10
2010,01,23,08,59,6.20
2010,01,23,09,00,6.20
2010,01,23,09,01,6.20
2010,01,23,09,02,6.20
2010,01,23,09,03,6.20
2010,01,23,09,04,6.20
2010,01,23,09,05,6.30
2010,01,23,09,06,6.30
2010,01,23,09,07,6.30
2010,01,23,09,08,6.30
2010,01,23,09,09,6.40
2010,01,23,09,10,6.40
2010,01,23,09,11,6.40
2010,01,23,09,12,6.40
2010,01,23,09,13,6.40
2010,01,23,09,14,6.50
2010,01,23,09,15,6.60
2010,01,23,09,16,6.60
2010,01,23,09,17,6.60
2010,01,23,09,18,6.60
2010,01,23,09,19,6.60
2010,01,23,09,20,6.60
2010,01,23,09,21,6.60
2010,01,23,09,22,6.70
2010,01,23,09,23,6.70
2010,01,23,09,24,6.80
2010,01,23,09,25,6.90
2010,01,23,09,26,7.00
2010,01,23,09,27,7.10
2010,01,23,09,28,7.20
2010,01,23,09,29,7.30
2010,01,23,09,30,7.30
2010,01,23,09,31,7.40
2010,01,23,09,32,7.50
2010,01,23,09,33,7.60
2010,01,23,09,34,7.60
2010,01,23,09,35,7.70
2010,01,23,09,36,7.80
2010,01,23,09,37,7.80
2010,01,23,09,38,7.80
2010,01,23,09,39,7.90
2010,01,23,09,40,7.90
2010,01,23,09,41,7.90
2010,01,23,09,42,7.90
2010,01,23,09,43,8.00
2010,01,23,09,44,8.00
2010,01,23,09,45,8.00
2010,01,23,09,46,8.10
2010,01,23,09,47,8.10
2010,01,23,09,48,8.20
2010,01,23,09,49,8.20
2010,01,23,09,50,8.20
2010,01,23,09,51,8.30
2010,01,23,09,52,8.30
2010,01,23,09,53,8.40
2010,01,23,09,54,8.40
2010,01,23,09,55,8.40
2010,01,23,09,56,8.40
2010,01,23,09,57,8.50
2010,01,23,09,58,8.50
2010,01,23,09,59,8.60
2010,01,23,10,00,8.60
2010,01,23,10,01,8.60
2010,01,23,10,02,8.60
2010,01,23,10,03,8.60
2010,01,23,10,04,8.60
2010,01,23,10,05,8.60
2010,01,23,10,06,8.60
2010,01,23,10,07,8.50
2010,01,23,10,08,8.50
2010,01,23,10,09,8.50
2010,01,23,10,10,8.50
2010,01,23,10,11,8.50
2010,01,23,10,12,8.50
2010,01,23,10,13,8.50
2010,01,23,10,14,8.50
2010,01,23,10,15,8.50
2010,01,23,10,16,8.50
2010,01,23,10,17,8.50
2010,01,23,10,18,8.50
2010,01,23,10,19,8.50
2010,01,23,10,20,8.60
2010,01,23,10,21,8.60
2010,01,23,10,22,8.60
2010,01,23,10,23,8.70
2010,01,23,10,24,8.70
2010,01,23,10,25,8.80
2010,01,23,10,26,8.80
2010,01,23,10,27,8.90
2010,01,23,10,28,8.90
2010,01,23,10,29,8.90
2010,01,23,10,30,8.90
2010,01,23,10,31,8.90
2010,01,23,10,32,8.90
2010,01,23,10,33,9.00
2010,01,23,10,34,9.00
2010,01,23,10,35,9.00
2010,01,23,10,36,9.00
2010,01,23,10,37,9.10
2010,01,23,10,38,9.10
2010,01,23,10,39,9.10
2010,01,23,10,40,9.10
2010,01,23,10,41,9.10
2010,01,23,10,42,9.20
2010,01,23,10,43,9.20
2010,01,23,10,44,9.20
2010,01,23,10,45,9.20
2010,01,23,10,46,9.30
2010,01,23,10,47,9.30
2010,01,23,10,48,9.40
2010,01,23,10,49,9.40
2010,01,23,10,50,9.50
2010,01,23,10,51,9.50
2010,01,23,10,52,9.50
2010,01,23,10,53,9.60
2010,01,23,10,54,9.60
2010,01,23,10,55,9.70
2010,01,23,10,56,9.70
2010,01,23,10,57,9.70
2010,01,23,10,58,9.80
2010,01,23,10,59,9.80
2010,01,23,11,00,9.80
2010,01,23,11,01,9.90
2010,01,23,11,02,9.80
2010,01,23,11,03,9.80
2010,01,23,11,04,9.70
2010,01,23,11,05,9.70
2010,01,23,11,06,9.60
2010,01,23,11,07,9.60
2010,01,23,11,08,9.60
2010,01,23,11,09,9.60
2010,01,23,11,10,9.60
2010,01,23,11,11,9.70
2010,01,23,11,12,9.70
2010,01,23,11,13,9.70
2010,01,23,11,14,9.70
2010,01,23,11,15,9.80
2010,01,23,11,16,9.80
2010,01,23,11,17,9.90
2010,01,23,11,18,9.90
2010,01,23,11,19,9.90
2010,01,23,11,20,9.90
2010,01,23,11,21,9.90
2010,01,23,11,22,9.90
2010,01,23,11,23,9.80
2010,01,23,11,24,9.80
2010,01,23,11,25,9.80
2010,01,23,11,26,9.80
2010,01,23,11,27,9.70
2010,01,23,11,28,9.70
2010,01,23,11,29,9.70
2010,01,23,11,30,9.70
2010,01,23,11,31,9.70
2010,01,23,11,32,9.70
2010,01,23,11,33,9.70
2010,01,23,11,34,9.70
2010,01,23,11,35,9.70
2010,01,23,11,36,9.70
2010,01,23,11,37,9.70
2010,01,23,11,38,9.70
2010,01,23,11,39,9.60
2010,01,23,11,40,9.60
2010,01,23,11,41,9.60
2010,01,23,11,42,9.60
2010,01,23,11,43,9.60
2010,01,23,11,44,9.60
2010,01,23,11,45,9.60
2010,01,23,11,46,9.60
2010,01,23,11,47,9.70
2010,01,23,11,48,9.70
2010,01,23,11,49,9.70
2010,01,23,11,50,9.70
2010,01,23,11,51,9.70
2010,01,23,11,52,9.70
2010,01,23,11,53,9.70
2010,01,23,11,54,9.70
2010,01,23,11,55,9.70
2010,01,23,11,56,9.70
2010,01,23,11,57,9.70
2010,01,23,11,58,9.70
2010,01,23,11,59,9.70
2010,01,23,12,00,9.70
2010,01,23,12,01,9.70
2010,01,23,12,02,9.60
2010,01,23,12,03,9.60
2010,01,23,12,04,9.70
2010,01,23,12,05,9.70
2010,01,23,12,06,9.70
2010,01,23,12,07,9.70
2010,01,23,12,08,9.70
2010,01,23,12,09,9.70
2010,01,23,12,10,9.70
2010,01,23,12,11,9.70
2010,01,23,12,12,9.80
2010,01,23,12,13,9.80
2010,01,23,12,14,9.80
2010,01,23,12,15,9.80
2010,01,23,12,16,9.80
2010,01,23,12,17,9.90
2010,01,23,12,18,9.90
2010,01,23,12,19,9.90
2010,01,23,12,20,9.90
2010,01,23,12,21,9.90
2010,01,23,12,22,9.90
2010,01,23,12,23,9.90
2010,01,23,12,24,9.80
2010,01,23,12,25,9.80
2010,01,23,12,26,9.80
2010,01,23,12,27,9.90
2010,01,23,12,28,9.80
2010,01,23,12,29,9.80
2010,01,23,12,30,9.80
2010,01,23,12,31,9.90
2010,01,23,12,32,9.90
2010,01,23,12,33,9.80
2010,01,23,12,34,9.90
2010,01,23,12,35,9.90
2010,01,23,12,36,9.90
2010,01,23,12,37,9.90
2010,01,23,12,38,9.90
2010,01,23,12,39,9.90
2010,01,23,12,40,9.90
2010,01,23,12,41,9.90
2010,01,23,12,42,9.90
2010,01,23,12,43,9.90
2010,01,23,12,44,9.90
2010,01,23,12,45,10.00
2010,01,23,12,46,10.10
2010,01,23,12,47,10.10
2010,01,23,12,48,10.10
2010,01,23,12,49,10.10
2010,01,23,12,50,10.10
2010,01,23,12,51,10.10
2010,01,23,12,52,10.10
2010,01,23,12,53,10.10
2010,01,23,12,54,10.10
2010,01,23,12,55,10.10
2010,01,23,12,56,9.90
2010,01,23,12,57,9.90
2010,01,23,12,58,9.90
2010,01,23,12,59,9.90
2010,01,23,13,00,9.90
2010,01,23,13,01,9.90
2010,01,23,13,02,9.90
2010,01,23,13,03,9.80
2010,01,23,13,04,9.80
2010,01,23,13,05,9.80
2010,01,23,13,06,9.70
2010,01,23,13,07,9.70
2010,01,23,13,08,9.60
2010,01,23,13,09,9.60
2010,01,23,13,10,9.60
2010,01,23,13,11,9.60
2010,01,23,13,12,9.60
2010,01,23,13,13,9.70
2010,01,23,13,14,9.70
2010,01,23,13,15,9.70
2010,01,23,13,16,9.80
2010,01,23,13,17,9.80
2010,01,23,13,18,9.80
2010,01,23,13,19,9.70
2010,01,23,13,20,9.70
2010,01,23,13,21,9.70
2010,01,23,13,22,9.70
2010,01,23,13,23,9.70
2010,01,23,13,24,9.70
2010,01,23,13,25,9.80
2010,01,23,13,26,9.80
2010,01,23,13,27,9.90
2010,01,23,13,28,9.90
2010,01,23,13,29,9.90
2010,01,23,13,30,9.90
2010,01,23,13,31,9.90
2010,01,23,13,32,9.90
2010,01,23,13,33,10.00
2010,01,23,13,34,10.00
2010,01,23,13,35,9.90
2010,01,23,13,36,9.90
2010,01,23,13,37,9.90
2010,01,23,13,38,9.90
2010,01,23,13,39,9.90
2010,01,23,13,40,9.90
2010,01,23,13,41,9.80
2010,01,23,13,42,9.90
2010,01,23,13,43,9.90
2010,01,23,13,44,9.90
2010,01,23,13,45,10.00
2010,01,23,13,46,10.10
2010,01,23,13,47,10.10
2010,01,23,13,48,10.10
2010,01,23,13,49,10.10
2010,01,23,13,50,10.00
2010,01,23,13,51,9.90
2010,01,23,13,52,9.90
2010,01,23,13,53,9.90
2010,01,23,13,54,9.90
2010,01,23,13,55,9.90
2010,01,23,13,56,9.90
2010,01,23,13,57,9.90
2010,01,23,13,58,9.90
2010,01,23,13,59,9.90
2010,01,23,14,00,9.90
2010,01,23,14,01,9.90
2010,01,23,14,02,9.90
2010,01,23,14,03,9.90
2010,01,23,14,04,9.90
2010,01,23,14,05,9.90
2010,01,23,14,06,9.90
2010,01,23,14,07,10.00
2010,01,23,14,08,9.90
2010,01,23,14,09,9.90
2010,01,23,14,10,9.90
2010,01,23,14,11,9.90
2010,01,23,14,12,9.80
2010,01,23,14,13,9.80
2010,01,23,14,14,9.80
2010,01,23,14,15,9.70
2010,01,23,14,16,9.70
2010,01,23,14,17,9.80
2010,01,23,14,18,9.80
2010,01,23,14,19,9.80
2010,01,23,14,20,9.80
2010,01,23,14,21,9.90
2010,01,23,14,22,9.90
2010,01,23,14,23,9.90
2010,01,23,14,24,9.90
2010,01,23,14,25,9.90
2010,01,23,14,26,9.80
2010,01,23,14,27,9.70
2010,01,23,14,28,9.70
2010,01,23,14,29,9.70
2010,01,23,14,30,9.60
2010,01,23,14,31,9.60
2010,01,23,14,32,9.50
2010,01,23,14,33,9.50
2010,01,23,14,34,9.50
2010,01,23,14,35,9.50
2010,01,23,14,36,9.40
2010,01,23,14,37,9.40
2010,01,23,14,38,9.40
2010,01,23,14,39,9.40
2010,01,23,14,40,9.40
2010,01,23,14,41,9.50
2010,01,23,14,42,9.50
2010,01,23,14,43,9.40
2010,01,23,14,44,9.40
2010,01,23,14,45,9.40
2010,01,23,14,46,9.40
2010,01,23,14,47,9.50
2010,01,23,14,48,9.50
2010,01,23,14,49,9.50
2010,01,23,14,50,9.50
2010,01,23,14,51,9.40
2010,01,23,14,52,9.30
2010,01,23,14,53,9.30
2010,01,23,14,54,9.20
2010,01,23,14,55,9.20
2010,01,23,14,56,9.20
2010,01,23,14,57,9.30
2010,01,23,14,58,9.30
2010,01,23,14,59,9.30
2010,01,23,15,00,9.20
2010,01,23,15,01,9.30
2010,01,23,15,02,9.20
2010,01,23,15,03,9.20
2010,01,23,15,04,9.20
2010,01,23,15,05,9.10
2010,01,23,15,06,9.00
2010,01,23,15,07,9.00
2010,01,23,15,08,8.90
2010,01,23,15,09,8.90
2010,01,23,15,10,8.90
2010,01,23,15,11,8.90
2010,01,23,15,12,8.90
2010,01,23,15,13,8.90
2010,01,23,15,14,9.00
2010,01,23,15,15,9.00
2010,01,23,15,16,9.00
2010,01,23,15,17,9.00
2010,01,23,15,18,9.00
2010,01,23,15,19,9.00
2010,01,23,15,20,9.00
2010,01,23,15,21,9.00
2010,01,23,15,22,9.00
2010,01,23,15,23,8.90
2010,01,23,15,24,8.90
2010,01,23,15,25,8.90
2010,01,23,15,26,8.90
2010,01,23,15,27,8.90
2010,01,23,15,28,8.90
2010,01,23,15,29,8.90
2010,01,23,15,30,8.90
2010,01,23,15,31,8.90
2010,01,23,15,32,8.90
2010,01,23,15,33,8.90
2010,01,23,15,34,8.90
2010,01,23,15,35,8.90
2010,01,23,15,36,8.90
2010,01,23,15,37,8.90
2010,01,23,15,38,8.90
2010,01,23,15,39,8.80
2010,01,23,15,40,8.90
2010,01,23,15,41,8.90
2010,01,23,15,42,8.80
2010,01,23,15,43,8.80
2010,01,23,15,44,8.80
2010,01,23,15,45,8.90
2010,01,23,15,46,8.80
2010,01,23,15,47,8.80
2010,01,23,15,48,8.90
2010,01,23,15,49,8.90
2010,01,23,15,50,8.90
2010,01,23,15,51,8.80
2010,01,23,15,52,8.80
2010,01,23,15,53,8.80
2010,01,23,15,54,8.80
2010,01,23,15,55,8.80
2010,01,23,15,56,8.80
2010,01,23,15,57,8.80
2010,01,23,15,58,8.70
2010,01,23,15,59,8.70
2010,01,23,16,00,8.70
2010,01,23,16,01,8.70
2010,01,23,16,02,8.70
2010,01,23,16,03,8.70
2010,01,23,16,04,8.70
2010,01,23,16,05,8.70
2010,01,23,16,06,8.70
2010,01,23,16,07,8.70
2010,01,23,16,08,8.70
2010,01,23,16,09,8.70
2010,01,23,16,10,8.70
2010,01,23,16,11,8.60
2010,01,23,16,12,8.60
2010,01,23,16,13,8.60
2010,01,23,16,14,8.60
2010,01,23,16,15,8.60
2010,01,23,16,16,8.60
2010,01,23,16,17,8.50
2010,01,23,16,18,8.50
2010,01,23,16,19,8.50
2010,01,23,16,20,8.40
2010,01,23,16,21,8.40
2010,01,23,16,22,8.40
2010,01,23,16,23,8.40
2010,01,23,16,24,8.30
2010,01,23,16,25,8.30
2010,01,23,16,26,8.30
2010,01,23,16,27,8.30
2010,01,23,16,28,8.30
2010,01,23,16,29,8.20
2010,01,23,16,30,8.20
2010,01,23,16,31,8.20
2010,01,23,16,32,8.20
2010,01,23,16,33,8.20
2010,01,23,16,34,8.20
2010,01,23,16,35,8.20
2010,01,23,16,36,8.10
2010,01,23,16,37,8.10
2010,01,23,16,38,8.10
2010,01,23,16,39,8.10
2010,01,23,16,40,8.10
2010,01,23,16,41,8.10
2010,01,23,16,42,8.00
2010,01,23,16,43,8.00
2010,01,23,16,44,8.00
2010,01,23,16,45,8.00
2010,01,23,16,46,8.00
2010,01,23,16,47,8.00
2010,01,23,16,48,7.90
2010,01,23,16,49,7.90
2010,01,23,16,50,7.90
2010,01,23,16,51,7.90
2010,01,23,16,52,7.90
2010,01,23,16,53,7.90
2010,01,23,16,54,7.90
2010,01,23,16,55,7.90
2010,01,23,16,56,7.90
2010,01,23,16,57,7.80
2010,01,23,16,58,7.80
2010,01,23,16,59,7.80
2010,01,23,17,00,7.80
2010,01,23,17,01,7.80
2010,01,23,17,02,7.80
2010,01,23,17,03,7.80
2010,01,23,17,04,7.80
2010,01,23,17,05,7.80
2010,01,23,17,06,7.70
2010,01,23,17,07,7.70
2010,01,23,17,08,7.70
2010,01,23,17,09,7.70
2010,01,23,17,10,7.70
2010,01,23,17,11,7.70
2010,01,23,17,12,7.70
2010,01,23,17,13,7.60
2010,01,23,17,14,7.60
2010,01,23,17,15,7.60
2010,01,23,17,16,7.60
2010,01,23,17,17,7.60
2010,01,23,17,18,7.60
2010,01,23,17,19,7.60
2010,01,23,17,20,7.50
2010,01,23,17,21,7.50
2010,01,23,17,22,7.50
2010,01,23,17,23,7.50
2010,01,23,17,24,7.50
2010,01,23,17,25,7.50
2010,01,23,17,26,7.50
2010,01,23,17,27,7.40
2010,01,23,17,28,7.40
2010,01,23,17,29,7.40
2010,01,23,17,30,7.40
2010,01,23,17,31,7.40
2010,01,23,17,32,7.40
2010,01,23,17,33,7.40
2010,01,23,17,34,7.40
2010,01,23,17,35,7.40
2010,01,23,17,36,7.40
2010,01,23,17,37,7.40
2010,01,23,17,38,7.40
2010,01,23,17,39,7.30
2010,01,23,17,40,7.30
2010,01,23,17,41,7.30
2010,01,23,17,42,7.30
2010,01,23,17,43,7.30
2010,01,23,17,44,7.30
2010,01,23,17,45,7.30
2010,01,23,17,46,7.30
2010,01,23,17,47,7.30
2010,01,23,17,48,7.30
2010,01,23,17,49,7.30
2010,01,23,17,50,7.30
2010,01,23,17,51,7.30
2010,01,23,17,52,7.30
2010,01,23,17,53,7.30
2010,01,23,17,54,7.30
2010,01,23,17,55,7.30
2010,01,23,17,56,7.30
2010,01,23,17,57,7.30
2010,01,23,17,58,7.30
2010,01,23,17,59,7.30
2010,01,23,18,00,7.30
2010,01,23,18,01,7.30
2010,01,23,18,02,7.30
2010,01,23,18,03,7.30
2010,01,23,18,04,7.20
2010,01,23,18,05,7.20